GFA177 OBBI-OEMA

Flight info

Callsign GFA177
Flight time 1h 46m
Altitude 30000
Route NARMI N697 TAYMA DCT GAS G674 EMURI EMURI1H
Aircraft A320/M-SDE3FGHIRWY/LB1

Departure

Time 2026-04-25 16:08
Airport Bahrain International Airport (OBBI)

Arrival

Time 2026-04-25 17:54
Airport Prince Mohammad Bin Abdulaziz Airport (OEMA)
Time Latitude Longitude Altitude Speed Heading
2026-04-25 15:31 26.26891 50.62966 22 ft 0 kts 213°
2026-04-25 15:58 26.26896 50.62970 21 ft 2 kts 213°
2026-04-25 15:58 26.26910 50.62980 22 ft 2 kts 213°
2026-04-25 15:59 26.26924 50.62990 21 ft 2 kts 213°
2026-04-25 15:59 26.26938 50.63000 25 ft 2 kts 218°
2026-04-25 15:59 26.26947 50.63015 22 ft 2 kts 289°
2026-04-25 15:59 26.26945 50.63020 22 ft 0 kts 304°
2026-04-25 16:01 26.26966 50.62998 22 ft 12 kts 315°
2026-04-25 16:02 26.27012 50.62923 22 ft 11 kts 301°
2026-04-25 16:02 26.27062 50.62881 22 ft 8 kts
2026-04-25 16:02 26.27102 50.62904 22 ft 5 kts 31°
2026-04-25 16:02 26.27135 50.62910 22 ft 5 kts 351°
2026-04-25 16:03 26.27163 50.62887 21 ft 6 kts 310°
2026-04-25 16:03 26.27203 50.62819 19 ft 14 kts 302°
2026-04-25 16:03 26.27253 50.62733 18 ft 13 kts 302°
2026-04-25 16:03 26.27299 50.62652 18 ft 12 kts 302°
2026-04-25 16:04 26.27341 50.62578 17 ft 11 kts 302°
2026-04-25 16:04 26.27379 50.62512 18 ft 9 kts 303°
2026-04-25 16:04 26.27412 50.62456 8 ft 8 kts 303°
2026-04-25 16:04 26.27455 50.62382 16 ft 14 kts 303°
2026-04-25 16:05 26.27512 50.62283 17 ft 16 kts 302°
2026-04-25 16:05 26.27573 50.62175 16 ft 17 kts 303°
2026-04-25 16:05 26.27711 50.61940 18 ft 19 kts 303°
2026-04-25 16:06 26.27785 50.61812 19 ft 20 kts 303°
2026-04-25 16:06 26.27866 50.61680 17 ft 21 kts 314°
2026-04-25 16:06 26.27978 50.61659 18 ft 16 kts 23°
2026-04-25 16:06 26.28012 50.61752 18 ft 16 kts 124°
2026-04-25 16:07 26.27959 50.61845 19 ft 14 kts 122°
2026-04-25 16:07 26.27939 50.61880 18 ft 18 kts 123°
2026-04-25 16:07 26.27431 50.62763 16 ft 146 kts 122°
2026-04-25 16:07 26.26785 50.63883 89 ft 196 kts 123°
2026-04-25 16:08 26.26036 50.65195 796 ft 200 kts 115°
2026-04-25 16:08 26.25721 50.66693 1543 ft 208 kts 86°
2026-04-25 16:08 26.25885 50.68390 2121 ft 228 kts 79°
2026-04-25 16:08 26.26154 50.70173 2494 ft 248 kts 78°
2026-04-25 16:09 26.26468 50.72127 2978 ft 261 kts 78°
2026-04-25 16:09 26.26808 50.74146 3656 ft 268 kts 78°
2026-04-25 16:09 26.27288 50.76172 4345 ft 275 kts 65°
2026-04-25 16:09 26.28418 50.77902 4986 ft 282 kts 40°
2026-04-25 16:10 26.30149 50.78933 5664 ft 287 kts 14°
2026-04-25 16:10 26.32139 50.79007 6366 ft 290 kts 346°
2026-04-25 16:10 26.33952 50.78070 7017 ft 289 kts 318°
2026-04-25 16:10 26.35187 50.76346 7725 ft 285 kts 291°
2026-04-25 16:11 26.35618 50.74232 8469 ft 280 kts 266°
2026-04-25 16:11 26.35394 50.72091 9256 ft 278 kts 259°
2026-04-25 16:11 26.35107 50.69968 10069 ft 276 kts 259°
2026-04-25 16:11 26.34809 50.67803 10429 ft 293 kts 260°
2026-04-25 16:12 26.34487 50.65472 10555 ft 316 kts 260°
2026-04-25 16:12 26.34144 50.62976 10760 ft 333 kts 260°
2026-04-25 16:12 26.33791 50.60393 11270 ft 340 kts 261°
2026-04-25 16:12 26.33676 50.59545 11447 ft 342 kts 261°
2026-04-25 16:13 26.33088 50.55117 11991 ft 346 kts 261°
2026-04-25 16:13 26.32736 50.52463 12030 ft 346 kts 261°
2026-04-25 16:13 26.32380 50.49810 12031 ft 346 kts 261°
2026-04-25 16:13 26.32020 50.47143 12471 ft 350 kts 261°
2026-04-25 16:14 26.31656 50.44457 13125 ft 352 kts 261°
2026-04-25 16:14 26.31287 50.41743 13729 ft 356 kts 261°
2026-04-25 16:14 26.30913 50.39002 14265 ft 359 kts 262°
2026-04-25 16:14 26.30538 50.36237 14835 ft 362 kts 262°
2026-04-25 16:15 26.30441 50.33437 15410 ft 364 kts 274°
2026-04-25 16:15 26.30883 50.30659 15976 ft 366 kts 285°
2026-04-25 16:15 26.31780 50.27995 16551 ft 368 kts 291°
2026-04-25 16:15 26.32733 50.25377 17140 ft 370 kts 291°
2026-04-25 16:16 26.33698 50.22711 17725 ft 372 kts 291°
2026-04-25 16:16 26.34665 50.20028 18293 ft 374 kts 291°
2026-04-25 16:16 26.35637 50.17329 18774 ft 377 kts 290°
2026-04-25 16:16 26.36616 50.14605 19230 ft 380 kts 290°
2026-04-25 16:17 26.37600 50.11859 19680 ft 384 kts 290°
2026-04-25 16:17 26.38592 50.09083 20139 ft 387 kts 289°
2026-04-25 16:17 26.39591 50.06296 20615 ft 389 kts 289°
2026-04-25 16:17 26.40596 50.03489 21041 ft 392 kts 289°
2026-04-25 16:18 26.41612 50.00649 21469 ft 396 kts 289°
2026-04-25 16:18 26.41957 49.99684 21593 ft 397 kts 288°
2026-04-25 16:18 26.43673 49.94897 22276 ft 402 kts 288°
2026-04-25 16:18 26.44713 49.91988 22667 ft 405 kts 288°
2026-04-25 16:19 26.45749 49.89078 23031 ft 408 kts 288°
2026-04-25 16:19 26.46800 49.86122 23377 ft 412 kts 288°
2026-04-25 16:19 26.47862 49.83143 23691 ft 415 kts 288°
2026-04-25 16:20 26.49940 49.77112 24321 ft 415 kts 282°
2026-04-25 16:20 26.50727 49.74011 24672 ft 415 kts 281°
2026-04-25 16:20 26.52295 49.67839 25455 ft 413 kts 281°
2026-04-25 16:21 26.53079 49.64743 25764 ft 415 kts 281°
2026-04-25 16:21 26.53862 49.61638 26062 ft 416 kts 281°
2026-04-25 16:21 26.54644 49.58519 26351 ft 418 kts 281°
2026-04-25 16:21 26.55429 49.55387 26635 ft 420 kts 281°
2026-04-25 16:22 26.56219 49.52237 26910 ft 422 kts 281°
2026-04-25 16:22 26.57013 49.49074 27174 ft 424 kts 281°
2026-04-25 16:22 26.57811 49.45900 27436 ft 426 kts 281°
2026-04-25 16:22 26.58610 49.42711 27697 ft 427 kts 281°
2026-04-25 16:23 26.59415 49.39505 27945 ft 429 kts 281°
2026-04-25 16:23 26.60223 49.36285 28183 ft 431 kts 281°
2026-04-25 16:23 26.61032 49.33060 28473 ft 431 kts 280°
2026-04-25 16:23 26.61841 49.29829 28726 ft 433 kts 280°
2026-04-25 16:24 26.62653 49.26588 28915 ft 434 kts 280°
2026-04-25 16:24 26.64267 49.20168 28960 ft 426 kts 279°
2026-04-25 16:25 26.65837 49.13841 28962 ft 425 kts 279°
2026-04-25 16:25 26.67407 49.07474 28964 ft 425 kts 280°
2026-04-25 16:26 26.68980 49.01093 28970 ft 426 kts 280°
2026-04-25 16:26 26.70559 48.94711 28997 ft 425 kts 280°
2026-04-25 16:27 26.72131 48.88358 29003 ft 422 kts 280°
2026-04-25 16:27 26.73690 48.82041 29004 ft 420 kts 280°
2026-04-25 16:28 26.75234 48.75742 28999 ft 420 kts 279°
2026-04-25 16:28 26.76339 48.69404 28998 ft 411 kts 268°
2026-04-25 16:29 26.75994 48.63083 28987 ft 407 kts 262°
2026-04-25 16:29 26.75505 48.56780 28977 ft 407 kts 262°
2026-04-25 16:30 26.75013 48.50517 28974 ft 407 kts 262°
2026-04-25 16:30 26.74510 48.44197 28977 ft 407 kts 262°
2026-04-25 16:31 26.74012 48.37883 28983 ft 408 kts 262°
2026-04-25 16:31 26.73512 48.31569 28983 ft 408 kts 262°
2026-04-25 16:32 26.72998 48.25257 28988 ft 408 kts 262°
2026-04-25 16:32 26.72487 48.18942 28981 ft 408 kts 263°
2026-04-25 16:33 26.72061 48.13682 28986 ft 409 kts 263°
2026-04-25 16:33 26.71546 48.07353 28988 ft 409 kts 263°
2026-04-25 16:34 26.71024 48.01019 28998 ft 409 kts 262°
2026-04-25 16:34 26.70500 47.94682 29001 ft 409 kts 263°
2026-04-25 16:35 26.69977 47.88351 29000 ft 409 kts 262°
2026-04-25 16:35 26.69451 47.82027 29000 ft 409 kts 262°
2026-04-25 16:36 26.68922 47.75705 29010 ft 408 kts 262°
2026-04-25 16:36 26.68383 47.69387 29008 ft 408 kts 262°
2026-04-25 16:37 26.67842 47.63077 29017 ft 407 kts 262°
2026-04-25 16:37 26.67310 47.56777 29026 ft 406 kts 263°
2026-04-25 16:38 26.66777 47.50498 29029 ft 405 kts 262°
2026-04-25 16:38 26.66237 47.44243 29028 ft 403 kts 262°
2026-04-25 16:39 26.65694 47.38009 29020 ft 403 kts 263°
2026-04-25 16:39 26.65155 47.31790 29022 ft 402 kts 263°
2026-04-25 16:40 26.64614 47.25587 29021 ft 401 kts 263°
2026-04-25 16:40 26.64064 47.19429 29018 ft 401 kts 263°
2026-04-25 16:41 26.63512 47.13217 29011 ft 401 kts 263°
2026-04-25 16:41 26.62693 47.03901 29000 ft 402 kts 263°
2026-04-25 16:42 26.62135 46.97678 29007 ft 402 kts 263°
2026-04-25 16:42 26.61576 46.91453 28980 ft 404 kts 264°
2026-04-25 16:43 26.61012 46.85202 28991 ft 405 kts 264°
2026-04-25 16:43 26.60441 46.78928 28989 ft 407 kts 264°
2026-04-25 16:44 26.59863 46.72637 28987 ft 408 kts 264°
2026-04-25 16:44 26.59284 46.66325 28989 ft 409 kts 264°
2026-04-25 16:45 26.58708 46.60006 28993 ft 409 kts 264°
2026-04-25 16:45 26.58117 46.53686 28993 ft 409 kts 264°
2026-04-25 16:46 26.57528 46.47377 29000 ft 408 kts 264°
2026-04-25 16:46 26.57040 46.42137 29001 ft 408 kts 264°
2026-04-25 16:47 26.56349 46.34775 28997 ft 408 kts 264°
2026-04-25 16:47 26.55753 46.28466 28990 ft 409 kts 264°
2026-04-25 16:48 26.55170 46.22255 28994 ft 410 kts 264°
2026-04-25 16:48 26.54565 46.15922 28983 ft 411 kts 263°
2026-04-25 16:49 26.53949 46.09573 28989 ft 412 kts 263°
2026-04-25 16:49 26.53335 46.03195 29006 ft 413 kts 263°
2026-04-25 16:50 26.52714 45.96806 29007 ft 414 kts 263°
2026-04-25 16:50 26.52100 45.90411 29008 ft 415 kts 263°
2026-04-25 16:51 26.51484 45.84002 29012 ft 416 kts 263°
2026-04-25 16:51 26.50963 45.78667 29014 ft 416 kts 263°
2026-04-25 16:52 26.50212 45.71163 29013 ft 416 kts 262°
2026-04-25 16:52 26.49569 45.64737 29021 ft 416 kts 262°
2026-04-25 16:53 26.48625 45.55137 29032 ft 416 kts 263°
2026-04-25 16:54 26.47987 45.48721 29037 ft 416 kts 263°
2026-04-25 16:54 26.47345 45.42316 29042 ft 416 kts 263°
2026-04-25 16:55 26.46696 45.35904 29047 ft 415 kts 262°
2026-04-25 16:55 26.46044 45.29495 29059 ft 416 kts 262°
2026-04-25 16:56 26.45389 45.23089 29058 ft 415 kts 262°
2026-04-25 16:56 26.44735 45.16684 29060 ft 415 kts 262°
2026-04-25 16:57 26.44076 45.10285 29056 ft 415 kts 262°
2026-04-25 16:57 26.43413 45.03891 29051 ft 415 kts 262°
2026-04-25 16:58 26.42748 44.97495 29051 ft 415 kts 262°
2026-04-25 16:58 26.42083 44.91108 29050 ft 414 kts 262°
2026-04-25 16:59 26.41412 44.84725 29043 ft 414 kts 262°
2026-04-25 16:59 26.40739 44.78345 29033 ft 415 kts 262°
2026-04-25 17:00 26.40068 44.71995 29026 ft 415 kts 262°
2026-04-25 17:00 26.39388 44.65589 29029 ft 416 kts 262°
2026-04-25 17:01 26.38710 44.59177 29036 ft 416 kts 262°
2026-04-25 17:01 26.38030 44.52770 29046 ft 416 kts 262°
2026-04-25 17:02 26.37339 44.46366 29051 ft 416 kts 262°
2026-04-25 17:02 26.36649 44.39971 29047 ft 415 kts 262°
2026-04-25 17:03 26.35957 44.33584 29053 ft 415 kts 262°
2026-04-25 17:03 26.35271 44.27225 29074 ft 414 kts 262°
2026-04-25 17:04 26.34573 44.20841 29077 ft 414 kts 262°
2026-04-25 17:04 26.33877 44.14516 29071 ft 414 kts 262°
2026-04-25 17:05 26.33171 44.08147 29067 ft 414 kts 262°
2026-04-25 17:05 26.32111 43.98573 29083 ft 416 kts 261°
2026-04-25 17:06 26.31402 43.92174 29029 ft 416 kts 261°
2026-04-25 17:06 26.30686 43.85777 29034 ft 416 kts 261°
2026-04-25 17:07 26.29924 43.79386 29031 ft 416 kts 257°
2026-04-25 17:07 26.27936 43.73369 29034 ft 416 kts 245°
2026-04-25 17:08 26.25542 43.67557 29040 ft 416 kts 245°
2026-04-25 17:08 26.23131 43.61693 29050 ft 416 kts 245°
2026-04-25 17:09 26.20703 43.55789 29046 ft 417 kts 245°
2026-04-25 17:09 26.18299 43.49946 29057 ft 418 kts 245°
2026-04-25 17:10 26.15866 43.44064 29075 ft 419 kts 245°
2026-04-25 17:10 26.13438 43.38175 29084 ft 418 kts 245°
2026-04-25 17:11 26.11009 43.32300 29096 ft 418 kts 245°
2026-04-25 17:11 26.08581 43.26428 29083 ft 418 kts 245°
2026-04-25 17:12 26.06144 43.20558 29102 ft 418 kts 245°
2026-04-25 17:12 26.03709 43.14701 29111 ft 417 kts 245°
2026-04-25 17:13 26.02087 43.10791 29120 ft 416 kts 245°
2026-04-25 17:13 25.98851 43.03031 29113 ft 415 kts 245°
2026-04-25 17:14 25.96419 42.97206 29090 ft 416 kts 245°
2026-04-25 17:14 25.93985 42.91373 29087 ft 417 kts 245°
2026-04-25 17:15 25.91541 42.85525 29087 ft 418 kts 245°
2026-04-25 17:15 25.89092 42.79673 29089 ft 418 kts 245°
2026-04-25 17:16 25.86636 42.73815 29087 ft 418 kts 245°
2026-04-25 17:16 25.84175 42.67959 29086 ft 418 kts 245°
2026-04-25 17:17 25.81711 42.62108 29085 ft 418 kts 245°
2026-04-25 17:17 25.79249 42.56268 29107 ft 417 kts 245°
2026-04-25 17:18 25.76794 42.50438 29108 ft 416 kts 245°
2026-04-25 17:18 25.74344 42.44626 29097 ft 416 kts 245°
2026-04-25 17:19 25.71888 42.38826 29105 ft 415 kts 245°
2026-04-25 17:19 25.69439 42.33052 29106 ft 413 kts 246°
2026-04-25 17:20 25.67411 42.28277 29107 ft 412 kts 245°
2026-04-25 17:20 25.64974 42.22546 29095 ft 411 kts 245°
2026-04-25 17:21 25.62543 42.16830 29108 ft 409 kts 246°
2026-04-25 17:21 25.60132 42.11135 29086 ft 407 kts 246°
2026-04-25 17:22 25.58108 42.06388 29089 ft 406 kts 246°
2026-04-25 17:22 25.55306 41.99827 29079 ft 405 kts 246°
2026-04-25 17:23 25.52901 41.94196 29092 ft 404 kts 246°
2026-04-25 17:23 25.50496 41.88583 29088 ft 403 kts 246°
2026-04-25 17:24 25.48088 41.82987 29048 ft 402 kts 246°
2026-04-25 17:24 25.45688 41.77397 29063 ft 403 kts 246°
2026-04-25 17:25 25.43290 41.71809 29018 ft 404 kts 246°
2026-04-25 17:25 25.42085 41.69002 28746 ft 404 kts 246°
2026-04-25 17:25 25.40878 41.66192 28487 ft 405 kts 246°
2026-04-25 17:26 25.39667 41.63374 28229 ft 406 kts 245°
2026-04-25 17:26 25.38450 41.60547 27973 ft 407 kts 245°
2026-04-25 17:26 25.37232 41.57724 27723 ft 407 kts 245°
2026-04-25 17:26 25.36013 41.54902 27473 ft 406 kts 245°
2026-04-25 17:27 25.34795 41.52089 27199 ft 405 kts 245°
2026-04-25 17:27 25.33590 41.49304 26665 ft 399 kts 245°
2026-04-25 17:27 25.32401 41.46556 26086 ft 394 kts 245°
2026-04-25 17:27 25.31622 41.44753 25703 ft 392 kts 244°
2026-04-25 17:28 25.30059 41.41141 24946 ft 387 kts 244°
2026-04-25 17:28 25.28901 41.38464 24390 ft 384 kts 244°
2026-04-25 17:28 25.27753 41.35809 23827 ft 382 kts 243°
2026-04-25 17:28 25.26610 41.33164 23216 ft 380 kts 243°
2026-04-25 17:29 25.25474 41.30542 22675 ft 376 kts 243°
2026-04-25 17:29 25.24351 41.27953 22173 ft 371 kts 243°
2026-04-25 17:29 25.23241 41.25396 21694 ft 367 kts 243°
2026-04-25 17:29 25.22142 41.22868 21224 ft 363 kts 243°
2026-04-25 17:30 25.21055 41.20371 20773 ft 359 kts 243°
2026-04-25 17:30 25.19979 41.17904 20353 ft 355 kts 243°
2026-04-25 17:30 25.18915 41.15465 19926 ft 350 kts 243°
2026-04-25 17:30 25.17865 41.13056 19529 ft 346 kts 243°
2026-04-25 17:31 25.16828 41.10676 19119 ft 342 kts 243°
2026-04-25 17:31 25.15805 41.08322 18704 ft 339 kts 243°
2026-04-25 17:31 25.14790 41.05991 18277 ft 335 kts 243°
2026-04-25 17:31 25.13783 41.03684 17825 ft 332 kts 243°
2026-04-25 17:32 25.12787 41.01405 17398 ft 327 kts 243°
2026-04-25 17:32 25.11812 40.99154 17015 ft 323 kts 245°
2026-04-25 17:32 25.11231 40.96773 16943 ft 324 kts 257°
2026-04-25 17:32 25.10867 40.94320 16882 ft 324 kts 257°
2026-04-25 17:33 25.10506 40.91860 16804 ft 325 kts 258°
2026-04-25 17:33 25.10149 40.89408 16716 ft 325 kts 257°
2026-04-25 17:33 25.09794 40.86943 16650 ft 325 kts 257°
2026-04-25 17:33 25.09441 40.84476 16577 ft 325 kts 257°
2026-04-25 17:34 25.09087 40.82012 16506 ft 325 kts 257°
2026-04-25 17:34 25.08732 40.79552 16436 ft 325 kts 257°
2026-04-25 17:34 25.08375 40.77086 16362 ft 325 kts 257°
2026-04-25 17:34 25.08019 40.74625 16292 ft 325 kts 257°
2026-04-25 17:35 25.07664 40.72172 16215 ft 324 kts 257°
2026-04-25 17:35 25.07307 40.69712 16145 ft 324 kts 258°
2026-04-25 17:35 25.06951 40.67260 16076 ft 324 kts 257°
2026-04-25 17:35 25.06592 40.64808 15995 ft 324 kts 257°
2026-04-25 17:36 25.06232 40.62360 15923 ft 323 kts 257°
2026-04-25 17:36 25.05874 40.59914 15853 ft 323 kts 257°
2026-04-25 17:36 25.05519 40.57479 15784 ft 322 kts 257°
2026-04-25 17:36 25.05163 40.55036 15704 ft 322 kts 257°
2026-04-25 17:37 25.04807 40.52601 15638 ft 322 kts 257°
2026-04-25 17:37 25.04455 40.50197 15570 ft 322 kts 257°
2026-04-25 17:37 25.04096 40.47761 15502 ft 322 kts 257°
2026-04-25 17:37 25.03748 40.45403 15444 ft 322 kts 257°
2026-04-25 17:38 25.03387 40.42962 15372 ft 322 kts 257°
2026-04-25 17:38 25.03145 40.41319 15312 ft 322 kts 257°
2026-04-25 17:38 25.02667 40.38080 15213 ft 324 kts 257°
2026-04-25 17:38 25.02304 40.35624 15146 ft 324 kts 257°
2026-04-25 17:39 25.01941 40.33172 15076 ft 324 kts 257°
2026-04-25 17:39 25.01581 40.30726 14998 ft 323 kts 257°
2026-04-25 17:39 25.01221 40.28281 14934 ft 323 kts 257°
2026-04-25 17:39 25.00857 40.25837 14868 ft 323 kts 257°
2026-04-25 17:40 25.00491 40.23386 14809 ft 324 kts 257°
2026-04-25 17:40 25.00126 40.20934 14739 ft 324 kts 257°
2026-04-25 17:40 24.99760 40.18479 14668 ft 324 kts 257°
2026-04-25 17:40 24.99393 40.16023 14450 ft 324 kts 257°
2026-04-25 17:41 24.99028 40.13575 14033 ft 323 kts 257°
2026-04-25 17:41 24.98663 40.11133 13557 ft 323 kts 257°
2026-04-25 17:41 24.98299 40.08692 13081 ft 322 kts 257°
2026-04-25 17:41 24.97937 40.06268 12620 ft 321 kts 257°
2026-04-25 17:42 24.97575 40.03844 12169 ft 320 kts 258°
2026-04-25 17:42 24.97218 40.01454 11934 ft 308 kts 258°
2026-04-25 17:42 24.96884 39.99208 11731 ft 288 kts 257°
2026-04-25 17:42 24.96575 39.97127 11240 ft 280 kts 258°
2026-04-25 17:43 24.96256 39.95018 10704 ft 278 kts 258°
2026-04-25 17:43 24.95940 39.92935 10619 ft 271 kts 258°
2026-04-25 17:43 24.95644 39.90958 10508 ft 251 kts 258°
2026-04-25 17:43 24.95371 39.89145 10308 ft 237 kts 258°
2026-04-25 17:44 24.95105 39.87388 10211 ft 232 kts 257°
2026-04-25 17:44 24.94835 39.85632 10163 ft 233 kts 258°
2026-04-25 17:44 24.94564 39.83861 10081 ft 235 kts 258°
2026-04-25 17:44 24.94293 39.82089 9976 ft 235 kts 258°
2026-04-25 17:45 24.94014 39.80293 9518 ft 242 kts 258°
2026-04-25 17:45 24.93909 39.79671 9326 ft 245 kts 257°
2026-04-25 17:45 24.93373 39.76655 8673 ft 234 kts 257°
2026-04-25 17:45 24.93058 39.74913 8350 ft 231 kts 257°
2026-04-25 17:46 24.92741 39.73183 8038 ft 230 kts 257°
2026-04-25 17:46 24.92426 39.71462 7718 ft 229 kts 257°
2026-04-25 17:46 24.92112 39.69749 7409 ft 228 kts 257°
2026-04-25 17:46 24.91794 39.68029 7093 ft 228 kts 255°
2026-04-25 17:47 24.91196 39.66437 6780 ft 225 kts 237°
2026-04-25 17:47 24.90156 39.65168 6476 ft 223 kts 218°
2026-04-25 17:47 24.88803 39.64366 6214 ft 222 kts 199°
2026-04-25 17:47 24.87267 39.64103 6186 ft 228 kts 181°
2026-04-25 17:48 24.84100 39.64694 6193 ft 233 kts 172°
2026-04-25 17:48 24.82518 39.65033 6179 ft 231 kts 170°
2026-04-25 17:48 24.80933 39.65372 6186 ft 232 kts 171°
2026-04-25 17:49 24.79422 39.65694 6159 ft 220 kts 172°
2026-04-25 17:49 24.77930 39.66012 5931 ft 216 kts 172°
2026-04-25 17:49 24.76484 39.66321 5699 ft 211 kts 172°
2026-04-25 17:49 24.75052 39.66626 5425 ft 208 kts 172°
2026-04-25 17:50 24.74112 39.66826 5249 ft 208 kts 172°
2026-04-25 17:50 24.72229 39.67227 4911 ft 206 kts 172°
2026-04-25 17:50 24.70828 39.67525 4662 ft 205 kts 172°
2026-04-25 17:50 24.69450 39.67819 4395 ft 204 kts 172°
2026-04-25 17:51 24.68053 39.68116 4132 ft 203 kts 172°
2026-04-25 17:51 24.66669 39.68411 3874 ft 203 kts 172°
2026-04-25 17:51 24.65298 39.68702 3621 ft 206 kts 171°
2026-04-25 17:51 24.63960 39.68988 3398 ft 187 kts 171°
2026-04-25 17:52 24.62744 39.69248 3170 ft 167 kts 173°
2026-04-25 17:52 24.62379 39.69326 3099 ft 162 kts 173°
2026-04-25 17:52 24.60627 39.69698 2781 ft 151 kts 173°
2026-04-25 17:52 24.59600 39.69915 2576 ft 149 kts 173°
2026-04-25 17:53 24.58586 39.70130 2385 ft 148 kts 172°
2026-04-25 17:53 24.57586 39.70343 2190 ft 145 kts 173°
2026-04-25 17:53 24.56676 39.70530 2114 ft 131 kts 169°
2026-04-25 17:53 24.55962 39.70688 2112 ft 53 kts 169°
2026-04-25 17:54 24.55686 39.70745 2109 ft 29 kts 170°
2026-04-25 17:54 24.55499 39.70779 2110 ft 27 kts 169°
2026-04-25 17:54 24.55331 39.70859 2109 ft 27 kts 150°
2026-04-25 17:54 24.55213 39.70974 2108 ft 17 kts 110°
2026-04-25 17:55 24.55224 39.71099 2106 ft 16 kts 73°
2026-04-25 17:55 24.55235 39.71213 2105 ft 14 kts 98°
2026-04-25 17:55 24.55244 39.71296 2105 ft 7 kts 80°
2026-04-25 17:55 24.55252 39.71340 2105 ft 0 kts 74°